Location: Kyle
(50.8323°N, 108.0393°W)
Time: 06:53:26
(UTC+00:00)

ISS - Visible Passes

Search period start: 27 January 2022 00:00
Search period end: 06 February 2022 00:00
Orbit: 413 x 422 km, 51.6° (Epoch: 27 January)

Date Brightness Start Highest point End Pass type
(mag) Time Alt. Az. Time Alt. Az. Time Alt. Az.
27 Jan -3.8 01:00:39 10° W 01:04:00 83° N 01:06:18 19° ENE visible
27 Jan -1.7 02:37:30 10° W 02:39:14 28° WNW 02:39:14 28° WNW visible
28 Jan -3.9 01:49:25 10° W 01:52:46 78° N 01:53:09 66° ENE visible
29 Jan -3.8 01:01:19 10° W 01:04:40 75° N 01:07:05 17° E visible
29 Jan -1.8 02:38:07 10° WNW 02:40:01 30° W 02:40:01 30° W visible
30 Jan -3.8 01:50:01 10° WNW 01:53:22 80° SSW 01:53:58 56° ESE visible
31 Jan -3.8 01:01:54 10° W 01:05:15 86° NNE 01:07:59 15° E visible
31 Jan -1.8 02:38:46 10° W 02:40:55 28° WSW 02:40:55 28° WSW visible
01 Feb -3.0 01:50:34 10° W 01:53:48 48° SSW 01:55:00 31° SSE visible
02 Feb -3.4 01:02:24 10° WNW 01:05:43 65° SSW 01:09:01 10° ESE visible
02 Feb -1.3 02:39:42 10° W 02:42:02 18° SW 02:42:07 18° SW visible
03 Feb -1.7 01:51:14 10° W 01:54:02 25° SW 01:56:27 12° SSE visible
04 Feb -2.2 01:02:53 10° W 01:05:59 35° SSW 01:09:04 10° SE visible
05 Feb -0.7 01:52:35 10° WSW 01:54:03 12° SW 01:55:30 10° SSW visible
